sat.trackr.live / text

‹ back to catalog

STARLINK-11438 [DTC]

NORAD 62888 · 2025-024K

PAYLOAD ACTIVE UNKNOWN

§ Identity

Operator
Country
US
Launch date
2025-02-04
Launch site
AFETR
Launch vehicle
Mass (kg)
RCS (m²)

Purposes: comms

External: N2YO · Heavens-Above · Gunter

§ Orbital elements

Epoch: 2026-09-20T21:56:22.174656Z

Period
91.67 min
Inclination
43.0020°
Eccentricity
0.0001851
Mean motion
15.70865962 rev/d
Perigee alt
355.2 km
Apogee alt
357.7 km
Semi-major
6,734.6 km
B*
1.0351e-3
RAAN
84.4106°
Arg perigee
285.9851°
Mean anomaly
74.0813°
Rev number
9,417

§ Raw data

STARLINK-11438 [DTC]1 62888U 25024K   26263.91414554  .00134687  00000+0  10351-2 0  99972 62888  43.0020  84.4106 0001851 285.9851  74.0813 15.70865962 94172

JSON: /api/v1/satellites/62888 · /tle

For live sub-satellite position, see the globe view (requires WebGL).

§ Visibility from observer

Set your observer location to see the next 7 days of passes ≥ 10°. The values pass through the URL so the page stays shareable.

No JS? Fill the form by hand. The geolocation button needs JavaScript.